Regional Weather Roundup
Issued by NWS

Home | Current Version | Previous Version | Graphics & Text | Print | Product List | Glossary On
Versions: 1 2 3 4 5 6 7 8 9 10 11 12 13 14 15 16 17 18 19 20 21 22 23 24 25 26 27 28 29 30 31 32 33 34 35 36 37 38 39 40 41 42 43 44 45 46 47 48 49 50
000
ASUS43 KFSD 272310
RWRSD

WEATHER ROUNDUP FOR SOUTH DAKOTA
NATIONAL WEATHER SERVICE SIOUX FALLS SD
600 PM CDT SAT AUG 27 2016

NOTE: "FAIR" INDICATES FEW OR NO CLOUDS BELOW 12,000 FEET WITH NO
SIGNIFICANT WEATHER AND/OR OBSTRUCTIONS TO VISIBILITY.


SDZ001>005-009-010-012>017-280000-
NORTHWEST AND NORTH CENTRAL SOUTH DAKOTA

CITY           SKY/WX    TMP DP  RH WIND       PRES   REMARKS
BUFFALO          N/A     80  49  33 SE13      29.82S
FAITH            N/A     80  51  36 S13       29.89S
MOBRIDGE       MOSUNNY   81  50  33 SE10      29.87S
$$

SDZ012>016-024>037-041>051-057-063-072>074-280000-
SOUTHWEST AND SOUTH CENTRAL SOUTH DAKOTA

CITY           SKY/WX    TMP DP  RH WIND       PRES   REMARKS
RAPID CTY ARPT CLOUDY    83  45  26 SW13G21   29.88S
PIERRE         SUNNY     83  55  38 E10       29.87F
CUSTER         CLOUDY    73  39  29 W8G18     30.04F
ELLSWORTH AFB  SUNNY     81  51  35 E9        29.88F
PHILIP         SUNNY     82  56  40 SE3       29.88F
PINE RIDGE     SUNNY     83  53  35 S5        29.92F
WINNER         FAIR      87  61  41 S10       29.90F
$$

SDZ004>011-016>023-039-040-280000-
NORTHEAST SOUTH DAKOTA

CITY           SKY/WX    TMP DP  RH WIND       PRES   REMARKS
ABERDEEN       SUNNY     78  61  55 S10       29.91S
WATERTOWN      MOSUNNY   74  62  66 S9        29.96S
BROOKINGS      SUNNY     74  62  66 S9        29.97S
SISSETON         N/A     74  62  66 S9        29.92S
$$

SDZ017-020-022-023-036>040-048>070-280000-
SOUTHEAST SOUTH DAKOTA

CITY           SKY/WX    TMP DP  RH WIND       PRES   REMARKS
SIOUX FALLS    MOSUNNY   77  65  66 S8        29.98R
HURON          SUNNY     81  60  48 SE10      29.91F
CHAMBERLAIN    SUNNY     86  60  40 SW8       29.90S
MITCHELL       SUNNY     83  59  44 S10       29.93S
YANKTON        SUNNY     81  61  50 S12       29.94S
$$

ABBREVIATIONS USED IN REMARKS
   TC - TEMPERATURE IN CELSIUS
  WCI - WIND CHILL INDEX
   HX - HEAT INDEX
  VSB - VISIBILITY





USA.gov is the U.S. government's official web portal to all federal, state and local government web resources and services.